Regional Weather Roundup
Issued by NWS

Home | Current Version | Previous Version | Graphics & Text | Print | Product List | Glossary On
Versions: 1 2 3 4 5 6 7 8 9 10 11 12 13 14 15 16 17 18 19 20 21 22 23 24 25 26 27 28 29 30 31 32 33 34 35 36 37 38 39 40 41 42 43 44 45 46 47 48 49 50
000
ASUS43 KDTX 282110
RWRMI
MICHIGAN HOURLY REGIONAL WEATHER ROUNDUP
NATIONAL WEATHER SERVICE DETROIT/PONTIAC MI
500 PM EDT SAT MAR 28 2015

NOTE: "FAIR" INDICATES FEW OR NO CLOUDS BELOW 12,000 FEET WITH NO
SIGNIFICANT WEATHER AND/OR OBSTRUCTION TO VISIBILITY.

MIZ047>049-052>055-059>063-066>070-074>076-081>083-282200-
SOUTHEAST LOWER MICHIGAN

CITY           SKY/WX    TMP DP  RH WIND       PRES   REMARKS
ADRIAN         SUNNY     35   8  32 N8        30.26F
ALMA           SUNNY     37   2  23 CALM      30.25F
ANN ARBOR      SUNNY     36   7  29 NW7       30.24F
BAD AXE        SUNNY     30  10  44 W7        30.26S
DETROIT CITY   SUNNY     37   8  30 NW8       30.25F
DETROIT        MOSUNNY   37   8  30 CALM      30.25F
FLINT          SUNNY     36   6  28 NW9       30.26S
GROSSE ILE     SUNNY     32  16  51 S12       30.25S
HILLSDALE      SUNNY     35   4  27 NW7       30.24R
HOWELL         SUNNY     34   6  32 W5        30.24S

CITY           SKY/WX    TMP DP  RH WIND       PRES   REMARKS
JACKSON        SUNNY     35   5  28 VRB7      30.24F
LAMBERTVILLE   SUNNY     36  10  35 W5        30.26F
LANSING        SUNNY     35   4  27 NW7       30.27F
LAPEER         NOT AVBL
MASON          SUNNY     33   5  30 N6        30.25F
MONROE         SUNNY     34  16  47 SE9       30.24F
MT. CLEMENS    MOSUNNY   34  11  39 NW12      30.22F
PONTIAC        MOSUNNY   35   5  28 VRB6      30.22F
PORT HOPE        N/A     28  12  51 N6        30.25F
PORT HURON     SUNNY     30  18  59 E6        30.25F
TRI CITIES     SUNNY     36   5  27 VRB3      30.25F
YPSILANTI      SUNNY     38   7  27 VRB7      30.25F
$$
MIZ043>046-050>051-056>058-064>065-071>073-077>080-282200-
SOUTHWEST LOWER MICHIGAN

CITY           SKY/WX    TMP DP  RH WIND       PRES   REMARKS
BATTLE CREEK   SUNNY     37   3  24 NW9       30.26F
BENTON HARBOR  SUNNY     27  10  49 NW9       30.32S
BIG RAPIDS     SUNNY     37  -1  20 NW6       30.23S
COLDWATER      SUNNY     35   4  27 W5        30.26S
HOLLAND        SUNNY     31  11  43 W10       30.31S
GRAND RAPIDS   SUNNY     35   3  26 VRB5      30.27F
KALAMAZOO      SUNNY     36   0  21 CALM      30.26F
MARSHALL       SUNNY     35   2  24 CALM      30.25F
MUSKEGON       SUNNY     30   6  36 W9        30.31S
$$
MIZ016>042-282200-
NORTHERN LOWER MICHIGAN

CITY           SKY/WX    TMP DP  RH WIND       PRES   REMARKS
ALPENA         SUNNY     35   6  29 W5        30.22F
BEAVER ISLAND  SUNNY     28  16  61 SW10G17   30.26F
BELLAIRE       SUNNY     32   2  28 SW3       30.27S
CADILLAC       SUNNY     36   2  24 SW7       30.20S
CHARLEVOIX     SUNNY     28  12  51 W10       30.30F
FRANKFORT      CLEAR     32  11  41 W7        30.28F
GAYLORD        SUNNY     29   2  31 W8        30.20S
GRAYLING       SUNNY     33   2  27 NW9G16    30.21S
HARBOR SPRINGS SUNNY     28   7  40 W10       30.26S
HOUGHTON LAKE  SUNNY     34   3  27 W8        30.21F
MANISTEE       SUNNY     28  10  47 W9        30.29F
OSCODA         SUNNY     31  14  49 SE7       30.24S
PELLSTON       SUNNY     30   6  36 W10       30.25F
TRAVERSE CITY  SUNNY     32  10  40 N10       30.25F
$$
MIZ007>008-015-282200-
EASTERN UPPER MICHIGAN

CITY           SKY/WX    TMP DP  RH WIND       PRES   REMARKS
KINROSS        SUNNY     30   7  37 SW12      30.21S
MACKINAC ISLAN SUNNY     25  15  65 W9G18     30.25S
NEWBERRY       SUNNY     30  11  45 S10       30.20F
S. S. MARIE    SUNNY     32   6  33 NW8       30.20F
$$
MIZ004>006-011>014-085-282200-
CENTRAL UPPER MICHIGAN

CITY           SKY/WX    TMP DP  RH WIND       PRES   REMARKS
MANISTIQUE     SUNNY     29  19  66 S13G18    30.23S
ESCANABA       SUNNY     32  12  43 S15       30.22F
MENOMINEE      SUNNY     36  16  44 S12       30.22F
SAWYER-GWINN   SUNNY     36   3  25 SW12      30.14F
$$
MIZ001>003-009>011-084-282200-
WESTERN UPPER MICHIGAN

CITY           SKY/WX    TMP DP  RH WIND       PRES   REMARKS
IRON MOUNTAIN  SUNNY     40   8  26 S12       30.13F
HOUGHTON       SUNNY     37   3  24 N3        30.11F
COPPER HARBOR    N/A     31  10  41 E3        30.15F
IRONWOOD       SUNNY     41  10  28 S10G16    30.06F
$$

ABBREVIATIONS USED IN REMARKS
   TC - TEMPERATURE IN CELSIUS
  WCI - WIND CHILL INDEX
   HX - HEAT INDEX
  VSB - VISIBILITY



USA.gov is the U.S. government's official web portal to all federal, state and local government web resources and services.